Weather History for Albert Lea, MN

Change the Weather History Date:

Friday, March 29, 2013

  Actual Average Record
Temperature  
Mean Temperature 42 °F -  
Max Temperature 51 °F 45 °F 69 °F (1998)
Min Temperature 32 °F 29 °F 21 °F (2009)
Degree Days  
Heating Degree Days 24    
Moisture  
Dew Point 34 °F    
Average Humidity 77    
Maximum Humidity 87    
Minimum Humidity 62    
Precipitation  
Precipitation 0.00 in - - ()
Sea Level Pressure  
Sea Level Pressure 30.20 in    
Wind  
Wind Speed 7 mph (SSE)    
Max Wind Speed 15 mph    
Max Gust Speed 20 mph    
Visibility 10 miles    
Events      
Averages and records for this station are not official NWS values.
T = Trace of Precipitation, MM = Missing Value Source: NWS Daily Summary

Daily Weather History Graph

Daily Weather History Graph

Search for Another Location

Airport:

Trip Planner

Search our weather history database for the weather conditions in past years. The results will help you decide how hot, cold, wet, or windy it might be!

Date:

Astronomy

Mar. 29, 2013 Rise Set
Actual Time 6:59 AM CDT 7:37 PM CDT
Civil Twilight 6:31 AM CDT 8:05 PM CDT
Nautical Twilight 5:56 AM CDT 8:40 PM CDT
Astronomical Twilight 5:21 AM CDT 9:15 PM CDT
Moon 10:44 PM CDT (3/29) 8:03 AM CDT (3/29)
Length of Visible Light 13h 34m
Length of Day
12h 37m
Waning Gibbous, 93% of the Moon is Illuminated
Mar 29
Waning Gibbous
Apr 2
Last Quarter
Apr 10
New
Apr 18
First Quarter
Apr 25
Full

Hourly Weather History & Observations

Time (CDT) Temp. Windchill Dew Point Humidity Pressure Visibility Wind Dir Wind Speed Gust Speed Precip Events Conditions
12:13 AM 35.6 °F 31.7 °F 30.2 °F 81% 30.26 in 10.0 mi South 4.6 mph - N/A   Clear
12:33 AM 35.6 °F 30.7 °F 30.2 °F 81% 30.25 in 10.0 mi SSE 5.8 mph - N/A   Clear
12:52 AM 33.8 °F 29.6 °F 30.2 °F 87% 30.25 in 10.0 mi SE 4.6 mph - N/A   Clear
1:13 AM 33.8 °F 28.6 °F 30.2 °F 87% 30.25 in 10.0 mi SSE 5.8 mph - N/A   Clear
1:33 AM 33.8 °F 29.6 °F 30.2 °F 87% 30.26 in 10.0 mi SSE 4.6 mph - N/A   Clear
1:52 AM 33.8 °F - 30.2 °F 87% 30.26 in 10.0 mi Calm Calm - N/A   Scattered Clouds
2:13 AM 33.8 °F - 28.4 °F 81% 30.26 in 10.0 mi Calm Calm - N/A   Scattered Clouds
2:33 AM 33.8 °F 30.8 °F 28.4 °F 81% 30.26 in 10.0 mi SSE 3.5 mph - N/A   Scattered Clouds
2:52 AM 33.8 °F 30.8 °F 28.4 °F 81% 30.26 in 10.0 mi South 3.5 mph - N/A   Clear
3:13 AM 32.0 °F 28.7 °F 28.4 °F 87% 30.25 in 10.0 mi SSE 3.5 mph - N/A   Scattered Clouds
3:33 AM 33.8 °F 30.8 °F 28.4 °F 81% 30.25 in 10.0 mi SSE 3.5 mph - N/A   Scattered Clouds
3:52 AM 33.8 °F 29.6 °F 30.2 °F 87% 30.25 in 10.0 mi SE 4.6 mph - N/A   Mostly Cloudy
4:13 AM 33.8 °F 30.8 °F 30.2 °F 87% 30.25 in 10.0 mi SSE 3.5 mph - N/A   Scattered Clouds
4:33 AM 33.8 °F 30.8 °F 28.4 °F 81% 30.24 in 10.0 mi SSE 3.5 mph - N/A   Scattered Clouds
4:52 AM 33.8 °F 30.8 °F 30.2 °F 87% 30.24 in 10.0 mi SE 3.5 mph - N/A   Mostly Cloudy
5:13 AM 33.8 °F 29.6 °F 30.2 °F 87% 30.24 in 10.0 mi SE 4.6 mph - N/A   Mostly Cloudy
5:33 AM 33.8 °F 29.6 °F 30.2 °F 87% 30.24 in 10.0 mi SSE 4.6 mph - N/A   Mostly Cloudy
5:52 AM 33.8 °F 28.6 °F 30.2 °F 87% 30.24 in 10.0 mi SSE 5.8 mph - N/A   Scattered Clouds
6:13 AM 33.8 °F 29.6 °F 28.4 °F 81% 30.24 in 10.0 mi SSE 4.6 mph - N/A   Clear
6:33 AM 33.8 °F 30.8 °F 28.4 °F 81% 30.24 in 10.0 mi SE 3.5 mph - N/A   Clear
6:52 AM 32.0 °F 28.7 °F 28.4 °F 87% 30.25 in 10.0 mi SSE 3.5 mph - N/A   Mostly Cloudy
7:13 AM 33.8 °F 30.8 °F 28.4 °F 81% 30.25 in 10.0 mi SE 3.5 mph - N/A   Overcast
7:32 AM 33.8 °F 30.8 °F 28.4 °F 81% 30.25 in 10.0 mi SE 3.5 mph - N/A   Overcast
7:53 AM 33.8 °F 30.8 °F 28.4 °F 81% 30.26 in 10.0 mi SSE 3.5 mph - N/A   Overcast
8:13 AM 33.8 °F 30.8 °F 28.4 °F 81% 30.26 in 10.0 mi SSE 3.5 mph - N/A   Overcast
8:33 AM 35.6 °F 31.7 °F 30.2 °F 81% 30.26 in 10.0 mi SSE 4.6 mph - N/A   Overcast
8:53 AM 35.6 °F 29.9 °F 30.2 °F 81% 30.26 in 10.0 mi SSE 6.9 mph - N/A   Mostly Cloudy
9:12 AM 37.4 °F 31.4 °F 30.2 °F 75% 30.26 in 10.0 mi SSE 8.1 mph - N/A   Scattered Clouds
9:33 AM 37.4 °F 30.3 °F 30.2 °F 75% 30.25 in 10.0 mi SSE 10.4 mph - N/A   Scattered Clouds
9:52 AM 39.2 °F 33.0 °F 30.2 °F 70% 30.25 in 10.0 mi SSE 9.2 mph - N/A   Clear
10:12 AM 39.2 °F 32.5 °F 30.2 °F 70% 30.26 in 10.0 mi SSE 10.4 mph - N/A   Clear
10:33 AM 39.2 °F 33.0 °F 33.8 °F 81% 30.25 in 10.0 mi SSE 9.2 mph - N/A   Clear
10:52 AM 41.0 °F 34.7 °F 33.8 °F 76% 30.25 in 10.0 mi SSE 10.4 mph - N/A   Clear
11:12 AM 42.8 °F 37.0 °F 33.8 °F 70% 30.25 in 10.0 mi SSE 10.4 mph - N/A   Clear
11:52 AM 42.8 °F 37.0 °F 35.6 °F 76% 30.25 in 10.0 mi SSE 10.4 mph - N/A   Mostly Cloudy
12:12 PM 44.6 °F 38.1 °F 35.6 °F 71% 30.23 in 10.0 mi SSE 13.8 mph - N/A   Scattered Clouds
12:33 PM 44.6 °F 38.4 °F 35.6 °F 71% 30.23 in 10.0 mi SSE 12.7 mph - N/A   Scattered Clouds
12:52 PM 46.4 °F 40.1 °F 35.6 °F 66% 30.23 in 10.0 mi SSE 15.0 mph - N/A   Clear
1:12 PM 46.4 °F 40.7 °F 37.4 °F 71% 30.23 in 10.0 mi SSE 12.7 mph - N/A   Scattered Clouds
1:33 PM 46.4 °F 40.1 °F 37.4 °F 71% 30.22 in 10.0 mi SSE 15.0 mph - N/A   Scattered Clouds
1:52 PM 46.4 °F 41.1 °F 37.4 °F 71% 30.21 in 10.0 mi SSE 11.5 mph - N/A   Scattered Clouds
2:12 PM 46.4 °F 40.1 °F 37.4 °F 71% 30.21 in 10.0 mi SSE 15.0 mph - N/A   Scattered Clouds
2:33 PM 48.2 °F - 37.4 °F 66% 30.20 in 10.0 mi SSE 13.8 mph 17.3 mph N/A   Clear
2:52 PM 48.2 °F - 39.2 °F 71% 30.20 in 10.0 mi South 11.5 mph 16.1 mph N/A   Scattered Clouds
3:13 PM 50.0 °F - 37.4 °F 62% 30.19 in 10.0 mi South 13.8 mph 19.6 mph N/A   Scattered Clouds
3:32 PM 50.0 °F - 39.2 °F 66% 30.18 in 10.0 mi South 12.7 mph - N/A   Scattered Clouds
3:52 PM 51.8 °F - 39.2 °F 62% 30.18 in 10.0 mi SSE 11.5 mph 18.4 mph N/A   Scattered Clouds
4:13 PM 51.8 °F - 39.2 °F 62% 30.17 in 10.0 mi South 9.2 mph 16.1 mph N/A   Scattered Clouds
4:32 PM 51.8 °F - 39.2 °F 62% 30.16 in 10.0 mi South 9.2 mph 17.3 mph N/A   Clear
4:53 PM 51.8 °F - 39.2 °F 62% 30.16 in 10.0 mi SSE 13.8 mph - N/A   Clear
5:12 PM 51.8 °F - 39.2 °F 62% 30.15 in 10.0 mi SSE 12.7 mph - N/A   Clear
5:33 PM 51.8 °F - 41.0 °F 67% 30.15 in 10.0 mi South 10.4 mph - N/A   Clear
5:52 PM 51.8 °F - 41.0 °F 67% 30.15 in 10.0 mi SSE 9.2 mph - N/A   Clear
6:13 PM 51.8 °F - 41.0 °F 67% 30.14 in 10.0 mi SSE 9.2 mph 16.1 mph N/A   Clear
6:32 PM 48.2 °F - 41.0 °F 76% 30.14 in 10.0 mi SSE 9.2 mph - N/A   Clear
6:52 PM 48.2 °F - 41.0 °F 76% 30.14 in 10.0 mi SSE 8.1 mph - N/A   Clear
7:13 PM 48.2 °F - 41.0 °F 76% 30.13 in 10.0 mi SSE 6.9 mph - N/A   Clear
7:32 PM 46.4 °F 42.4 °F 39.2 °F 76% 30.13 in 10.0 mi SSE 8.1 mph - N/A   Clear
7:52 PM 46.4 °F 42.4 °F 39.2 °F 76% 30.12 in 10.0 mi SSE 8.1 mph - N/A   Clear
8:13 PM 44.6 °F 39.7 °F 39.2 °F 81% 30.12 in 10.0 mi SSE 9.2 mph - N/A   Clear
8:32 PM 44.6 °F 40.2 °F 39.2 °F 81% 30.12 in 10.0 mi SSE 8.1 mph - N/A   Clear
8:52 PM 44.6 °F 39.7 °F 39.2 °F 81% 30.11 in 10.0 mi SSE 9.2 mph - N/A   Clear
9:13 PM 44.6 °F 40.2 °F 39.2 °F 81% 30.11 in 10.0 mi SSE 8.1 mph - N/A   Clear
9:33 PM 44.6 °F 39.7 °F 39.2 °F 81% 30.11 in 10.0 mi SSE 9.2 mph - N/A   Clear
9:52 PM 44.6 °F 39.2 °F 39.2 °F 81% 30.11 in 10.0 mi SSE 10.4 mph - N/A   Clear
10:12 PM 44.6 °F 39.2 °F 37.4 °F 76% 30.10 in 10.0 mi SSE 10.4 mph - N/A   Clear
10:33 PM 44.6 °F 38.8 °F 37.4 °F 76% 30.10 in 10.0 mi SSE 11.5 mph - N/A   Scattered Clouds
10:52 PM 44.6 °F 38.8 °F 37.4 °F 76% 30.09 in 10.0 mi SSE 11.5 mph - N/A   Scattered Clouds
11:12 PM 42.8 °F 36.2 °F 37.4 °F 81% 30.09 in 10.0 mi SSE 12.7 mph - N/A   Mostly Cloudy
11:33 PM 42.8 °F 36.2 °F 37.4 °F 81% 30.08 in 10.0 mi SSE 12.7 mph - N/A   Overcast
11:52 PM 42.8 °F 36.6 °F 37.4 °F 81% 30.08 in 7.0 mi SSE 11.5 mph - N/A   Overcast